Flag for Norway Weather past 2 weeks in Nøtterøy, Norway

Now
27 °F

Light snow. Passing clouds.


Feels Like: 17 °F
Forecast: 22 / 24 °F
Wind: 9 mph from North

Location: Torp

Current Time: Feb 2, 2015 at 1:43:52 AM

Latest Report: Feb 2, 2015 at 12:50 AM


Visibility: 6 mi

Pressure: 29.15 "Hg

Humidity: 93%

Dew point: 25 °F

Location of NøtterøyLocation

Historic Weather in Nøtterøy — Graph

°F

Nøtterøy temperature yesterday

Maximum temperature yesterday: 30 °F (at 12:20 AM)
Minimum temperature yesterday: 27 °F (at 3:20 PM)
Average temperature yesterday: 28 °F

Past Weeks' High & Low Weather Summary

 TemperatureHumidityPressure
High39 °F (Jan 26, 1:20 AM)100% (Jan 18, 11:20 PM)30.21 "Hg (Jan 18, 11:20 PM)
Low9 °F (Jan 23, 9:50 AM)60% (Jan 27, 11:50 AM)28.47 "Hg (Jan 29, 6:50 AM)
Average31 °F91%29.58 "Hg
* Reported Jan 18 12:20 AM — Feb 2 12:50 AM, Nøtterøy, Weather by CustomWeather, © 2014

Note: Actual official high and low records may vary slightly from our data, if they occured in-between our weather recording intervals... More about our weather records

Advertising

Nøtterøy weather history for previous 24 hours

 ConditionsComfort  
Time TempWeatherWind HumidityBarometerVisibility
12:50 AM
Feb 2
27 °FLight snow. Passing clouds.9 mph93%29.15 "Hg6 mi
12:20 AM27 °FPassing clouds.8 mph93%29.15 "HgN/A
11:50 PM
Feb 1
27 °FLight snow. Ice fog.12 mph93%29.12 "Hg4 mi
11:20 PM27 °FSnow flurries. Partly cloudy.10 mph93%29.12 "Hg6 mi
10:50 PM27 °FLight snow. Ice fog.9 mph93%29.12 "Hg2 mi
10:20 PM27 °FLight snow. Ice fog.9 mph93%29.12 "Hg4 mi
9:50 PM27 °FLight snow. Ice fog.9 mph93%29.12 "Hg4 mi
9:20 PM27 °FLight snow. Ice fog.8 mph93%29.09 "Hg5 mi
8:50 PM27 °FLight snow. Ice fog.8 mph93%29.09 "Hg5 mi
8:20 PM27 °FLight snow. Ice fog.7 mph93%29.09 "Hg4 mi
7:50 PM27 °FLight snow. Ice fog.9 mph86%29.09 "Hg5 mi
7:20 PM27 °FLight snow. Ice fog.9 mph93%29.09 "Hg5 mi
6:50 PM27 °FLight snow. Ice fog.9 mph93%29.06 "Hg4 mi
6:20 PM27 °FLight snow. Passing clouds.12 mph93%29.06 "Hg6 mi
5:50 PM27 °FLight snow. Passing clouds.12 mph93%29.06 "Hg5 mi
5:20 PM27 °FLight snow. Overcast.14 mph93%29.06 "Hg3 mi
4:50 PM27 °FLight snow. Ice fog.14 mph93%29.06 "Hg2 mi
4:20 PM27 °FLight snow. Ice fog.13 mph93%29.03 "Hg1 mi
3:50 PM27 °FLight snow. Ice fog.13 mph93%29.03 "Hg2 mi
3:20 PM27 °FLight snow. Ice fog.15 mph93%29.03 "Hg2 mi
2:50 PM28 °FLight snow. Ice fog.16 mph86%29.03 "Hg2 mi
2:20 PM28 °FLight snow. Ice fog.17 mph86%29.00 "Hg2 mi
1:50 PM28 °FLight snow. Ice fog.15 mph86%29.00 "Hg1 mi
1:20 PM28 °FLight snow. Ice fog.15 mph86%29.00 "Hg1 mi
12:50 PM28 °FLight snow. Ice fog.15 mph93%29.00 "Hg1 mi
12:20 PM28 °FLight snow. Ice fog.16 mph86%29.00 "Hg2 mi
11:50 AM28 °FLight snow. Ice fog.16 mph86%29.00 "Hg2 mi
11:20 AM28 °FLight snow. Low clouds.17 mph86%29.00 "Hg2 mi
10:50 AM28 °FLight snow. Ice fog.17 mph86%28.97 "Hg2 mi
10:20 AM28 °FLight snow. Ice fog.18 mph86%28.97 "Hg3 mi
9:50 AM28 °FLight snow. Ice fog.17 mph93%28.97 "Hg2 mi
9:20 AM28 °FLight snow. Ice fog.16 mph93%28.97 "Hg1 mi
8:50 AM28 °FLight snow. Ice fog.17 mph86%28.94 "Hg1 mi
8:20 AM28 °FLight snow. Ice fog.20 mph86%28.94 "Hg2 mi
7:50 AM28 °FSnow flurries. Passing clouds.16 mph86%28.94 "Hg3 mi
7:20 AM28 °FPassing clouds.17 mph86%28.94 "HgN/A
6:50 AM28 °FLight snow. Passing clouds.16 mph86%28.94 "HgN/A
6:20 AM28 °FLight snow. Passing clouds.17 mph86%28.94 "HgN/A
5:50 AM28 °FLight snow. Passing clouds.17 mph86%28.94 "HgN/A
5:20 AM28 °FLight snow. Overcast.18 mph86%28.94 "HgN/A
4:50 AM28 °FLight snow. Passing clouds.17 mph86%28.94 "Hg5 mi
4:20 AM28 °FSnow flurries. Overcast.17 mph86%28.94 "HgN/A
3:50 AM28 °FLight rain. Passing clouds.20 mph86%28.94 "Hg5 mi
3:20 AM28 °FSnow flurries. Ice fog.18 mph86%28.94 "Hg4 mi
2:50 AM30 °FSnow flurries. Overcast.18 mph80%28.94 "Hg4 mi
2:20 AM30 °FLight snow. Overcast.17 mph80%28.94 "Hg4 mi
1:50 AM30 °FLight snow. Overcast.17 mph80%28.94 "HgN/A
1:20 AM30 °FLight snow. Passing clouds.18 mph80%28.94 "HgN/A
Weather by CustomWeather, © 2014

See weather overviewHow to use our weather pages